Location: Bachas
(43.2439°N, 0.9375°E)
Time: 05:50:17
(UTC+00:00)

Daily predictions for brighter satellites

Satellite Brightness Start Highest point End
(mag) Time Altitude Azimuth Time Altitude Azimuth Time Altitude Azimuth
ATLAS CENTAUR R/B 3.9 03:46:18 20° NE 03:46:18 20° NE 03:47:44 10° NE
Cosmos 2237 Rocket 4.0 03:48:41 23° N 03:48:41 23° N 03:50:48 10° NNE
Lacrosse 5 3.5 03:47:37 29° NE 03:47:37 29° NE 03:51:26 10° E
NOSS 3-1 (C) 3.9 03:53:58 81° SW 03:53:58 81° SW 04:02:31 10° SSE
BREEZE-M DEB (TANK) 4.4 03:54:29 52° NNW 03:54:48 52° NNW 03:59:30 10° ENE
CZ-2C R/B 3.2 03:54:52 10° NNE 03:59:16 51° ENE 03:59:16 51° ENE
CZ-4C R/B 3.7 04:02:10 27° N 04:02:10 27° N 04:05:41 10° NNE
Meteor 2-10 Rocket 4.2 04:03:59 51° NE 04:03:59 51° NE 04:07:57 10° NNE
Cosmos 1934 Rocket 3.8 04:10:35 10° N 04:16:53 80° W 04:23:14 10° S
Cosmos 1943 Rocket 3.2 04:13:11 12° N 04:17:57 42° ENE 04:23:08 10° SE
USA 215 4.2 04:16:21 10° NE 04:22:00 32° NNW 04:22:54 31° NNW
Cosmos 2297 4.2 04:26:08 44° S 04:26:08 44° S 04:29:58 10° SSE
SL-16 R/B 2.3 04:28:22 60° NNW 04:28:22 60° NNW 04:33:25 10° NNE
Cosmos 2221 3.8 04:28:32 10° SSE 04:32:31 40° E 04:36:33 10° NNE
Cosmos 1605 Rocket 3.8 04:32:49 10° N 04:39:04 82° W 04:45:13 10° S
USA 229 DEB 4.1 04:41:12 43° WSW 04:41:12 43° WSW 04:48:13 10° S
USA 229 4.1 04:41:15 44° WSW 04:41:15 44° WSW 04:48:19 10° S
Cosmos 2369 Rocket 3.0 04:36:46 10° NNW 04:42:23 52° ENE 04:47:56 10° SE
Cosmos 1603 4.5 04:38:34 10° S 04:44:04 52° ESE 04:49:36 10° NE
NOSS 3-1 (A) 4.1 04:44:10 30° NW 04:48:19 60° WSW 04:56:50 10° SSE
Cosmos 1943 4.3 04:44:57 10° S 04:50:14 44° ESE 04:55:34 10° NE
Meteor PRIRODA 4.0 04:48:49 10° NNE 04:52:30 63° E 04:54:56 20° S
Cosmos 1153 Rocket 4.5 04:46:23 10° N 04:52:34 83° E 04:58:41 10° S
USA 267 4.4 04:50:31 10° S 04:54:32 24° SW 04:54:32 24° SW
Meteor 2-3 Rocket 3.6 04:52:52 10° NNW 04:58:38 82° W 05:04:25 10° S
Cosmos 1992 Rocket 4.2 04:59:41 44° WSW 04:59:41 44° WSW 05:04:30 10° S
Cosmos 1727 Rocket 3.8 04:58:05 10° S 05:04:17 80° W 05:10:29 10° N
Cosmos 1633 4.1 05:03:43 10° N 05:07:09 37° ENE 05:10:32 10° SSE
Cosmos 1484 Rocket 2.7 05:03:37 10° N 05:07:34 76° WNW 05:11:06 13° SSW
Cosmos 2251 Rocket 4.2 05:08:58 32° WNW 05:09:01 32° WNW 05:13:47 10° N
SKYMED 2 3.5 05:06:42 10° SSE 05:11:03 87° ENE 05:15:25 10° NNW
Cosmos 2173 Rocket 4.2 05:08:33 10° N 05:14:52 72° E 05:21:03 10° SSE
Cosmos 1500 Rocket 3.5 05:15:07 10° NNW 05:19:32 66° W 05:23:52 10° S
CZ-4B R/B 3.0 05:16:47 10° N 05:20:15 40° WNW 05:20:20 39° WNW
Meteor 2-2 Rocket 4.4 05:15:38 10° S 05:21:39 88° E 05:27:44 10° N
PSLV R/B 3.5 05:18:47 10° N 05:22:31 77° WNW 05:26:18 10° SSW
ATLAS CENTAUR R/B 3.1 05:22:30 19° NW 05:22:34 19° NW 05:25:48 10° N
Cosmos 1238 Rocket 4.4 05:18:00 10° N 05:24:07 59° ENE 05:29:17 10° SSE
STARLINK-1103 4.5 05:21:25 13° SSW 05:24:45 46° SE 05:28:38 10° ENE
Okean O Rocket 2.8 05:21:03 10° NNE 05:25:16 45° E 05:29:25 10° S
Meteor 1-27 4.2 05:20:30 10° SSW 05:25:58 57° WNW 05:31:26 10° N
Cosmos 2100 Rocket 3.9 05:22:30 10° N 05:28:45 84° W 05:34:55 10° S
STARLINK-1101 4.3 05:25:52 12° SSW 05:29:22 50° SE 05:33:17 10° ENE
STARLINK-1128 4.2 05:26:06 13° SSW 05:29:28 51° SE 05:33:21 10° ENE
Lacrosse 5 1.8 05:26:51 20° NW 05:30:21 71° SW 05:35:23 10° SE
Cosmos 2237 Rocket 4.2 05:30:31 10° NW 05:30:44 10° NW 05:31:49 10° NNW
Cosmos 1743 Rocket 3.8 05:27:11 10° NNW 05:31:18 43° W 05:35:24 10° SSW
H-2A R/B 3.3 05:27:56 10° N 05:31:48 31° WNW 05:34:00 20° WSW
Cosmos 2084 4.4 05:27:29 10° SSW 05:31:51 51° ESE 05:36:13 10° NE
STARLINK-1113 4.1 05:30:23 12° SW 05:33:54 56° SE 05:37:49 10° ENE
STARLINK-1102 4.2 05:30:19 12° SW 05:34:00 55° SE 05:37:57 10° ENE
STARLINK-1118 2.2 05:33:41 44° WSW 05:34:20 81° NW 05:36:54 10° NE
GEOS 3 Rocket 4.2 05:30:06 10° NNE 05:35:02 40° NW 05:38:29 18° WSW
Meteor 1-31 Rocket 4.0 05:32:12 10° NNW 05:34:48 22° WNW 05:34:48 22° WNW
STARLINK-1070 2.6 05:35:37 29° WSW 05:36:56 84° NNW 05:39:52 10° NE
Cosmos 1000 Rocket 4.4 05:31:10 10° S 05:37:19 81° W 05:43:35 10° N
STARLINK-1124 2.6 05:36:35 32° WSW 05:37:43 66° NW 05:40:38 10° NE
CZ-2C R/B 3.7 05:33:58 10° NNW 05:37:45 21° WNW 05:38:39 20° WNW
STARLINK-1066 2.6 05:36:40 28° WSW 05:38:02 81° NW 05:40:57 10° NE
STARLINK-1081 2.5 05:36:55 28° WSW 05:38:16 81° NW 05:41:12 10° NE
STARLINK-1119 4.0 05:34:35 11° SW 05:38:18 61° SE 05:42:14 10° ENE
STARLINK-1069 2.6 05:37:20 28° WSW 05:38:42 80° NW 05:41:38 10° NE
STARLINK-1111 4.0 05:34:53 11° SW 05:38:43 60° SE 05:42:42 10° ENE
Cosmos 1023 Rocket 4.5 05:33:33 10° SSW 05:38:49 84° WNW 05:44:08 10° NNE
ADEOS Rocket 3.6 05:32:51 10° SSE 05:38:56 67° ENE 05:45:46 10° N
STARLINK-1085 2.6 05:37:33 28° WSW 05:38:57 80° NW 05:41:53 10° NE
STARLINK-1086 2.6 05:37:46 27° WSW 05:39:10 79° NW 05:42:05 10° NE
STARLINK-1095 2.6 05:37:59 27° WSW 05:39:23 79° NW 05:42:19 10° NE
STARLINK-1077 2.6 05:38:13 27° WSW 05:39:37 78° NW 05:42:33 10° NE
STARLINK-1075 2.6 05:38:24 27° WSW 05:39:49 78° NW 05:42:46 10° NE
Cosmos 2061 Rocket 4.2 05:33:32 10° N 05:39:52 79° E 05:46:04 10° S
STARLINK-1093 2.6 05:38:38 27° WSW 05:40:03 78° NW 05:42:59 10° NE
STARLINK-1074 2.6 05:38:51 27° WSW 05:40:16 77° NW 05:43:13 10° NE
STARLINK-1087 2.6 05:39:04 26° WSW 05:40:31 77° NW 05:43:27 10° NE
STARLINK-1088 2.6 05:39:17 26° WSW 05:40:44 76° NW 05:43:40 10° NE
STARLINK-1115 2.6 05:39:29 26° WSW 05:40:57 76° NW 05:43:53 10° NE
STARLINK-1076 2.6 05:39:43 26° WSW 05:41:11 75° NW 05:44:06 10° NE
STARLINK-1092 2.6 05:39:56 26° WSW 05:41:25 75° NW 05:44:20 10° NE
STARLINK-1080 2.6 05:40:09 26° WSW 05:41:38 75° NNW 05:44:33 10° NE
STARLINK-1090 2.6 05:40:22 25° WSW 05:41:52 74° NNW 05:44:47 10° NE
STARLINK-1089 2.6 05:40:35 25° WSW 05:42:05 74° NW 05:45:01 10° NE
STARLINK-1107 2.6 05:40:47 25° WSW 05:42:17 74° NW 05:45:13 10° NE
STARLINK-1109 2.6 05:40:59 25° WSW 05:42:31 73° NNW 05:45:26 10° NE
STARLINK-1091 2.6 05:41:14 25° WSW 05:42:46 73° NW 05:45:41 10° NE
STARLINK-1114 3.8 05:38:54 10° SW 05:42:46 66° SE 05:46:44 10° ENE
STARLINK-1072 2.6 05:41:27 25° WSW 05:42:59 72° NW 05:45:55 10° NE
STARLINK-1096 2.6 05:41:41 25° WSW 05:43:13 72° NNW 05:46:08 10° NE
STARLINK-1073 3.9 05:39:23 10° SW 05:43:21 65° SE 05:47:21 10° ENE
STARLINK-1079 2.6 05:41:53 24° WSW 05:43:26 72° NNW 05:46:21 10° NE
STARLINK-1116 2.6 05:42:06 24° WSW 05:43:41 71° NNW 05:46:36 10° NE
STARLINK-1094 2.6 05:42:32 24° WSW 05:44:07 70° NNW 05:47:02 10° NE
STARLINK-1117 2.6 05:42:44 24° WSW 05:44:20 70° NW 05:47:16 10° NE
STARLINK-1078 2.6 05:42:57 23° WSW 05:44:34 70° NNW 05:47:29 10° NE
STARLINK-1108 2.6 05:43:09 23° WSW 05:44:46 69° NW 05:47:42 10° NE
STARLINK-1071 2.6 05:43:25 23° WSW 05:45:01 69° NNW 05:47:55 10° NE
Cosmos 1459 Rocket 3.9 05:38:59 10° NNW 05:45:07 68° W 05:51:18 10° S
STARLINK-1110 2.6 05:43:37 23° WSW 05:45:14 69° NW 05:48:10 10° NE
STARLINK-1122 2.6 05:44:02 23° WSW 05:45:41 68° NW 05:48:36 10° NE
STARLINK-1126 2.6 05:44:15 23° WSW 05:45:55 68° NNW 05:48:50 10° NE
STARLINK-1082 2.6 05:44:28 22° WSW 05:46:09 67° NNW 05:49:03 10° NE
STARLINK-1100 2.6 05:44:41 22° WSW 05:46:21 67° NNW 05:49:16 10° NE
STARLINK-1083 2.6 05:44:54 22° WSW 05:46:35 67° NNW 05:49:30 10° NE
STARLINK-1125 2.6 05:45:08 22° WSW 05:46:49 66° NW 05:49:44 10° NE
STARLINK-1130 (DARKSAT) 3.7 05:43:10 10° SW 05:47:08 72° SE 05:51:07 10° ENE
BREEZE M DEB (TANK) 4.2 05:44:47 15° NW 05:47:28 49° NNE 05:56:32 10° E
STARLINK-1121 3.8 05:43:56 10° SW 05:47:57 71° SE 05:51:59 10° ENE
Shenzhou-11 Module 2.5 05:46:58 17° SW 05:48:41 42° SSE 05:51:14 10° E
METEOR-M 4.2 05:44:01 10° N 05:49:14 54° WNW 05:54:25 10° SSW
CZ-4C R/B 4.3 05:47:50 10° NW 05:50:48 14° NNW 05:54:00 10° NNE
STARLINK-1084 3.6 05:47:36 10° SW 05:51:36 77° SE 05:55:35 10° ENE
Cosmos 1400 Rocket 3.2 05:48:06 10° S 05:52:04 68° E 05:56:07 10° NNE
STARLINK-1106 3.7 05:48:38 10° SW 05:52:40 78° SE 05:56:43 10° ENE
Cosmos 1954 Rocket 4.1 05:48:07 10° SSW 05:53:26 87° ESE 05:58:48 10° NNE
Cosmos 1725 Rocket 4.2 05:47:14 10° N 05:53:31 79° E 05:59:49 10° S
Cosmos 1869 3.8 05:50:23 10° SW 05:54:05 35° WNW 05:57:45 10° N
Cosmos 2123 Rocket 4.1 05:48:42 10° S 05:55:01 85° E 06:01:21 10° N
Cosmos 407 Rocket 3.8 05:50:15 10° SW 05:55:22 46° WNW 06:00:28 10° N
STARLINK-1112 3.6 05:53:25 10° SW 05:57:27 84° SE 06:01:31 10° NE
ALOS 2.8 05:53:46 10° N 05:58:03 37° WNW 06:02:20 10° SW
COSMO-SKYMED 1 3.4 05:55:29 10° SSW 05:59:13 28° W 06:02:59 10° NW
Cosmos 1140 Rocket 3.6 05:54:09 10° SW 05:59:18 58° WNW 06:04:30 10° NNE
USA 116 3.6 05:56:28 10° S 05:59:31 40° W 06:02:30 10° NNW
Cosmos 921 Rocket 3.3 05:57:01 10° NNW 06:01:15 46° WSW 06:05:24 10° S
Cosmos 1943 Rocket 3.0 05:56:50 10° NW 06:01:28 28° WSW 06:06:05 10° SSW
Cosmos 1802 Rocket 4.1 05:56:25 10° NNW 06:02:45 62° W 06:09:02 10° S
Cosmos 1633 Rocket 3.3 06:02:47 10° N 06:07:10 76° E 06:11:32 10° SSE
Cosmos 1666 Rocket 3.5 06:04:23 10° N 06:08:51 84° W 06:13:14 10° S
Cosmos 2221 3.9 06:07:23 10° WSW 06:10:17 18° WNW 06:13:12 10° NNW
SL-08 R/B 4.4 06:06:38 10° NNW 06:12:45 72° W 06:18:47 10° S
SL-16 R/B 4.0 06:10:41 10° WNW 06:13:05 13° NW 06:15:28 10° NNW
Cosmos 1864 Rocket 4.4 06:07:26 10° NNW 06:13:33 73° W 06:19:41 10° S
Helios 1A Rocket 2.9 06:10:16 10° N 06:14:26 77° WNW 06:18:32 10° SSW
Aureole 2 Rocket 3.7 06:15:48 10° WNW 06:18:01 18° WSW 06:20:17 10° SSW
FENGYUN 3A 4.5 06:15:55 10° N 06:20:34 30° WNW 06:25:13 10° SW
Iridium 51 4.2 06:19:07 10° S 06:23:10 79° W 06:26:54 10° N
H-2A R/B 2.6 06:19:47 10° N 06:23:33 69° WNW 06:27:14 10° SSW
Cosmos 2369 Rocket 3.3 06:21:32 10° NW 06:26:01 24° WSW 06:30:28 10° SSW
